Tracking 19827 objects as of 21-Aug-2019
HD Live streaming from Space Station
objects crossing your sky now

COSMOS 2251 DEB

Track COSMOS 2251 DEB now!
10-day predictions


NORAD ID: 34972
Int'l Code: 1993-036AFB
Perigee: 705.7 km
Apogee: 785.1 km
Inclination: 74.0 °
Period: 99.6 minutes
Semi major axis: 7116 km
RCS: 0.0076 m2 (small)
Launch date: June 16, 1993
Source: Commonwealth of Independent States (former USSR) (CIS)
Launch site: PLESETSK MISSILE AND SPACE COMPLEX (PKMTR)

Note: This is SATELLITE DEBRIS
aabbcc
Your satellite tracking list
Your tracking list is empty




NASA's NSSDC Master Catalog

Two Line Element Set (TLE):
1 34972U 93036AFB 19232.04111685 +.00000322 +00000-0 +96002-4 0  9997
2 34972 073.9961 092.3494 0055810 076.7037 073.3719 14.46153690541528
Source of the keplerian elements: AFSPC